| time (UTC) | temp F | wind direction | speed MPH | gust MPH | rain 1hr in | rain 24hr in | rain mn in | humidity % | barometer mb |
| 20260904215927 | 69 | 155 | 9.0 | 15.0 | 0.00 | 0.00 | 0.00 | 78 | 1013.9 |
| 20260904215431 | 69 | 189 | 7.0 | 13.0 | 0.00 | 0.00 | 0.00 | 77 | 1013.9 |
| 20260904215427 | 70 | 159 | 8.0 | 15.0 | 0.00 | 0.00 | 0.00 | 76 | 1013.9 |
| 20260904214427 | 69 | 189 | 7.0 | 11.0 | 0.00 | 0.00 | 0.00 | 74 | 1014.1 |
| 20260904213927 | 68 | 141 | 7.0 | 12.0 | 0.00 | 0.00 | 0.00 | 74 | 1014.1 |
| 20260904213426 | 68 | 175 | 7.0 | 12.0 | 0.00 | 0.00 | 0.00 | 76 | 1014.0 |
| 20260904212927 | 68 | 145 | 8.0 | 13.0 | 0.00 | 0.00 | 0.00 | 77 | 1014.0 |
| 20260904212427 | 67 | 144 | 8.0 | 13.0 | 0.00 | 0.00 | 0.00 | 77 | 1014.1 |
| 20260904211926 | 67 | 151 | 7.0 | 12.0 | 0.00 | 0.00 | 0.00 | 78 | 1014.0 |
| 20260904211427 | 67 | 185 | 7.0 | 13.0 | 0.00 | 0.00 | 0.00 | 79 | 1014.1 |
| 20260904210929 | 69 | 182 | 8.0 | 12.0 | 0.00 | 0.00 | 0.00 | 75 | 1014.0 |
| 20260904210925 | 68 | 166 | 8.0 | 13.0 | 0.00 | 0.00 | 0.00 | 76 | 1014.2 |
| 20260904205924 | 70 | 163 | 7.0 | 12.0 | 0.00 | 0.00 | 0.00 | 75 | 1014.0 |
| 20260904205424 | 70 | 132 | 7.0 | 11.0 | 0.00 | 0.00 | 0.00 | 75 | 1014.0 |
| 20260904204925 | 70 | 157 | 7.0 | 11.0 | 0.00 | 0.00 | 0.00 | 74 | 1013.9 |
| 20260904204425 | 70 | 142 | 5.0 | 9.0 | 0.00 | 0.00 | 0.00 | 72 | 1014.0 |
| 20260904203925 | 70 | 151 | 5.0 | 9.0 | 0.00 | 0.00 | 0.00 | 72 | 1013.9 |
| 20260904203423 | 70 | 136 | 5.0 | 9.0 | 0.00 | 0.00 | 0.00 | 73 | 1014.0 |
| 20260904202923 | 70 | 183 | 6.0 | 10.0 | 0.00 | 0.00 | 0.00 | 73 | 1014.1 |
| 20260904202423 | 70 | 143 | 7.0 | 10.0 | 0.00 | 0.00 | 0.00 | 72 | 1014.1 |
| 20260904201923 | 70 | 144 | 6.0 | 10.0 | 0.00 | 0.00 | 0.00 | 73 | 1014.1 |
| 20260904201427 | 69 | 171 | 6.0 | 10.0 | 0.00 | 0.00 | 0.00 | 74 | 1014.2 |
| 20260904201423 | 70 | 136 | 5.0 | 10.0 | 0.00 | 0.00 | 0.00 | 72 | 1014.2 |
| 20260904200427 | 69 | 138 | 5.0 | 9.0 | 0.00 | 0.00 | 0.00 | 74 | 1014.1 |
| 20260904200423 | 68 | 134 | 6.0 | 9.0 | 0.00 | 0.00 | 0.00 | 73 | 1014.2 |
| 20260904195423 | 68 | 154 | 5.0 | 10.0 | 0.00 | 0.00 | 0.00 | 75 | 1014.3 |
| 20260904194922 | 68 | 126 | 6.0 | 12.0 | 0.00 | 0.00 | 0.00 | 75 | 1014.3 |
| 20260904194422 | 67 | 119 | 6.0 | 12.0 | 0.00 | 0.00 | 0.00 | 76 | 1014.4 |
| 20260904193923 | 67 | 165 | 7.0 | 10.0 | 0.00 | 0.00 | 0.00 | 76 | 1014.4 |
| 20260904193423 | 68 | 172 | 6.0 | 12.0 | 0.00 | 0.00 | 0.00 | 75 | 1014.5 |
| 20260904192927 | 68 | 158 | 6.0 | 10.0 | 0.00 | 0.00 | 0.00 | 75 | 1014.5 |
| 20260904192923 | 68 | 169 | 5.0 | 12.0 | 0.00 | 0.00 | 0.00 | 75 | 1014.5 |
| 20260904191922 | 68 | 122 | 6.0 | 10.0 | 0.00 | 0.00 | 0.00 | 74 | 1014.5 |
| 20260904191422 | 68 | 169 | 5.0 | 10.0 | 0.00 | 0.00 | 0.00 | 74 | 1014.5 |
| 20260904190927 | 68 | 142 | 6.0 | 11.0 | 0.00 | 0.00 | 0.00 | 75 | 1014.6 |
| 20260904190922 | 68 | 161 | 6.0 | 10.0 | 0.00 | 0.00 | 0.00 | 75 | 1014.6 |
| 20260904185922 | 68 | 168 | 6.0 | 11.0 | 0.00 | 0.00 | 0.00 | 75 | 1014.8 |
| 20260904185422 | 68 | 183 | 4.0 | 10.0 | 0.00 | 0.00 | 0.00 | 76 | 1014.6 |
| 20260904184926 | 68 | 95 | 5.0 | 9.0 | 0.00 | 0.00 | 0.00 | 76 | 1014.8 |
| 20260904184923 | 69 | 154 | 4.0 | 9.0 | 0.00 | 0.00 | 0.00 | 76 | 1014.8 |
| 20260904183922 | 68 | 136 | 3.0 | 7.0 | 0.00 | 0.00 | 0.00 | 77 | 1014.9 |
| 20260904183426 | 67 | 118 | 5.0 | 10.0 | 0.00 | 0.00 | 0.00 | 76 | 1014.9 |
| 20260904183422 | 68 | 132 | 4.0 | 9.0 | 0.00 | 0.00 | 0.00 | 78 | 1014.9 |
| 20260904182423 | 67 | 82 | 5.0 | 10.0 | 0.00 | 0.00 | 0.00 | 77 | 1015.0 |
| 20260904181926 | 67 | 151 | 4.0 | 9.0 | 0.00 | 0.00 | 0.00 | 77 | 1014.9 |
| 20260904181922 | 67 | 192 | 4.0 | 10.0 | 0.00 | 0.00 | 0.00 | 76 | 1015.0 |
| 20260904180927 | 66 | 134 | 5.0 | 11.0 | 0.00 | 0.00 | 0.00 | 80 | 1014.9 |
| 20260904180922 | 66 | 101 | 4.0 | 9.0 | 0.00 | 0.00 | 0.00 | 78 | 1014.9 |
| 20260904175920 | 65 | 165 | 6.0 | 11.0 | 0.00 | 0.00 | 0.00 | 81 | 1014.9 |
| 20260904175420 | 65 | 165 | 7.0 | 11.0 | 0.00 | 0.00 | 0.00 | 81 | 1015.0 |
| 20260904174920 | 65 | 170 | 6.0 | 11.0 | 0.00 | 0.00 | 0.00 | 80 | 1015.0 |
| 20260904174420 | 66 | 178 | 5.0 | 10.0 | 0.00 | 0.00 | 0.00 | 79 | 1014.9 |
| 20260904173920 | 66 | 182 | 4.0 | 8.0 | 0.00 | 0.00 | 0.00 | 79 | 1014.9 |
| 20260904173421 | 66 | 176 | 4.0 | 8.0 | 0.00 | 0.00 | 0.00 | 80 | 1014.8 |
| 20260904172926 | 65 | 188 | 5.0 | 9.0 | 0.00 | 0.00 | 0.00 | 81 | 1014.8 |
| 20260904172921 | 66 | 192 | 4.0 | 8.0 | 0.00 | 0.00 | 0.00 | 81 | 1014.8 |
| 20260904172527 | 65 | 140 | 6.0 | 10.0 | 0.00 | 0.00 | 0.00 | 82 | 1014.6 |
| 20260904172028 | 65 | 159 | 6.0 | 10.0 | 0.00 | 0.00 | 0.00 | 80 | 1014.5 |
| 20260904170920 | 65 | 176 | 4.0 | 8.0 | 0.00 | 0.00 | 0.00 | 83 | 1014.5 |
| 20260904170420 | 65 | 187 | 3.0 | 7.0 | 0.00 | 0.00 | 0.00 | 82 | 1014.4 |
| 20260904165920 | 64 | 154 | 3.0 | 7.0 | 0.00 | 0.00 | 0.00 | 85 | 1014.4 |
| 20260904165418 | 64 | 194 | 2.0 | 7.0 | 0.00 | 0.00 | 0.00 | 86 | 1014.4 |
| 20260904164918 | 63 | 115 | 2.0 | 7.0 | 0.00 | 0.00 | 0.00 | 89 | 1014.3 |
| 20260904164419 | 62 | 120 | 3.0 | 7.0 | 0.00 | 0.00 | 0.00 | 90 | 1014.3 |
| 20260904163925 | 61 | 69 | 4.0 | 10.0 | 0.00 | 0.00 | 0.00 | 95 | 1014.2 |
| 20260904163918 | 63 | 136 | 3.0 | 9.0 | 0.00 | 0.00 | 0.00 | 93 | 1014.3 |
| 20260904162916 | 61 | 141 | 5.0 | 10.0 | 0.00 | 0.00 | 0.00 | 95 | 1014.2 |
| 20260904162417 | 60 | 150 | 4.0 | 10.0 | 0.00 | 0.00 | 0.00 | 96 | 1014.2 |
| 20260904161917 | 60 | 148 | 1.0 | 8.0 | 0.00 | 0.00 | 0.00 | 97 | 1014.1 |
| 20260904161417 | 60 | 198 | 0.0 | 0.0 | 0.00 | 0.00 | 0.00 | 97 | 1014.1 |
| 20260904160915 | 60 | 118 | 0.0 | 0.0 | 0.00 | 0.00 | 0.00 | 97 | 1014.0 |
| 20260904160416 | 60 | 90 | 0.0 | 4.0 | 0.00 | 0.00 | 0.00 | 97 | 1014.0 |
| 20260904155916 | 59 | 132 | 0.0 | 4.0 | 0.00 | 0.00 | 0.00 | 97 | 1013.9 |
| 20260904155416 | 59 | 132 | 2.0 | 7.0 | 0.00 | 0.00 | 0.00 | 97 | 1013.9 |
| 20260904154914 | 59 | 107 | 3.0 | 9.0 | 0.00 | 0.00 | 0.00 | 97 | 1013.9 |
| 20260904154414 | 59 | 137 | 1.0 | 9.0 | 0.00 | 0.00 | 0.00 | 97 | 1013.9 |
| 20260904153914 | 58 | 115 | 0.0 | 0.0 | 0.00 | 0.00 | 0.00 | 97 | 1013.9 |
| 20260904153414 | 58 | 102 | 0.0 | 0.0 | 0.00 | 0.00 | 0.00 | 97 | 1013.9 |
| 20260904152914 | 58 | 103 | 0.0 | 0.0 | 0.00 | 0.00 | 0.00 | 97 | 1013.8 |
| 20260904152418 | 58 | 47 | 0.0 | 0.0 | 0.00 | 0.00 | 0.00 | 97 | 1013.8 |
| 20260904152414 | 58 | 102 | 0.0 | 0.0 | 0.00 | 0.00 | 0.00 | 97 | 1013.8 |
| 20260904151416 | 58 | 43 | 0.0 | 0.0 | 0.00 | 0.00 | 0.00 | 97 | 1013.8 |
| 20260904150911 | 58 | 55 | 0.0 | 0.0 | 0.00 | 0.00 | 0.00 | 97 | 1013.7 |
| 20260904150416 | 58 | 73 | 0.0 | 1.0 | 0.00 | 0.00 | 0.00 | 97 | 1013.8 |
| 20260904150411 | 58 | 67 | 0.0 | 1.0 | 0.00 | 0.00 | 0.00 | 97 | 1013.7 |
| 20260904145410 | 57 | 113 | 0.0 | 0.0 | 0.00 | 0.00 | 0.00 | 97 | 1013.7 |
| 20260904144910 | 57 | 95 | 0.0 | 0.0 | 0.00 | 0.00 | 0.00 | 97 | 1013.6 |
| 20260904144408 | 57 | 101 | 0.0 | 0.0 | 0.00 | 0.00 | 0.00 | 97 | 1013.6 |
| 20260904143908 | 58 | 101 | 0.0 | 0.0 | 0.00 | 0.00 | 0.00 | 97 | 1013.5 |
| 20260904143407 | 57 | 108 | 0.0 | 0.0 | 0.00 | 0.00 | 0.00 | 97 | 1013.5 |
| 20260904142906 | 57 | 126 | 0.0 | 0.0 | 0.00 | 0.00 | 0.00 | 97 | 1013.5 |
| 20260904142405 | 57 | 104 | 0.0 | 0.0 | 0.00 | 0.00 | 0.00 | 97 | 1013.5 |
| 20260904141905 | 57 | 108 | 0.0 | 0.0 | 0.00 | 0.00 | 0.00 | 97 | 1013.4 |
| 20260904141407 | 57 | 93 | 0.0 | 0.0 | 0.00 | 0.00 | 0.00 | 97 | 1013.2 |
| 20260904140907 | 57 | 58 | 0.0 | 0.0 | 0.00 | 0.00 | 0.00 | 97 | 1013.1 |
| 20260904140903 | 57 | 88 | 0.0 | 0.0 | 0.00 | 0.00 | 0.00 | 97 | 1013.2 |
| 20260904135908 | 57 | 32 | 0.0 | 0.0 | 0.00 | 0.00 | 0.00 | 97 | 1012.9 |
| 20260904135904 | 57 | 38 | 0.0 | 0.0 | 0.00 | 0.00 | 0.00 | 97 | 1013.0 |
| 20260904134907 | 57 | 34 | 2.0 | 5.0 | 0.00 | 0.00 | 0.00 | 97 | 1012.8 |
| 20260904134903 | 57 | 36 | 0.0 | 0.0 | 0.00 | 0.00 | 0.00 | 97 | 1012.9 |
| 20260904133859 | 57 | 40 | 3.0 | 6.0 | 0.00 | 0.00 | 0.00 | 97 | 1012.8 |
| 20260904133405 | 57 | 38 | 0.0 | 2.0 | 0.00 | 0.00 | 0.00 | 97 | 1012.8 |
| 20260904133359 | 57 | 51 | 1.0 | 6.0 | 0.00 | 0.00 | 0.00 | 97 | 1012.8 |
| 20260904132359 | 57 | 42 | 1.0 | 5.0 | 0.00 | 0.00 | 0.00 | 97 | 1012.8 |
| 20260904131900 | 57 | 76 | 3.0 | 6.0 | 0.00 | 0.00 | 0.00 | 97 | 1012.8 |
| 20260904131359 | 57 | 64 | 4.0 | 7.0 | 0.00 | 0.00 | 0.00 | 97 | 1012.9 |
| 20260904130900 | 57 | 76 | 3.0 | 7.0 | 0.00 | 0.00 | 0.00 | 97 | 1012.8 |
| 20260904130400 | 58 | 92 | 1.0 | 7.0 | 0.00 | 0.00 | 0.00 | 97 | 1012.9 |
| 20260904125900 | 58 | 101 | 0.0 | 4.0 | 0.00 | 0.00 | 0.00 | 97 | 1012.9 |
| 20260904125400 | 58 | 86 | 0.0 | 6.0 | 0.00 | 0.00 | 0.00 | 97 | 1012.7 |
| 20260904124900 | 57 | 86 | 2.0 | 6.0 | 0.00 | 0.00 | 0.00 | 97 | 1012.8 |
| 20260904124405 | 58 | 103 | 4.0 | 8.0 | 0.00 | 0.00 | 0.00 | 96 | 1012.7 |
| 20260904124400 | 58 | 76 | 3.0 | 7.0 | 0.00 | 0.00 | 0.00 | 97 | 1012.7 |
| 20260904123405 | 58 | 92 | 4.0 | 8.0 | 0.00 | 0.00 | 0.00 | 96 | 1012.6 |
| 20260904123359 | 58 | 97 | 4.0 | 8.0 | 0.00 | 0.00 | 0.00 | 96 | 1012.7 |
| 20260904122403 | 58 | 106 | 4.0 | 7.0 | 0.00 | 0.00 | 0.00 | 96 | 1012.6 |
| 20260904122357 | 58 | 113 | 4.0 | 7.0 | 0.00 | 0.00 | 0.00 | 96 | 1012.6 |
| 20260904121357 | 58 | 88 | 4.0 | 7.0 | 0.00 | 0.00 | 0.00 | 96 | 1012.6 |
| 20260904120857 | 58 | 93 | 4.0 | 10.0 | 0.00 | 0.00 | 0.00 | 96 | 1012.5 |
| 20260904120357 | 58 | 125 | 5.0 | 10.0 | 0.00 | 0.00 | 0.00 | 96 | 1012.6 |
| 20260904115858 | 58 | 96 | 6.0 | 10.0 | 0.00 | 0.00 | 0.00 | 96 | 1012.5 |
| 20260904115358 | 58 | 102 | 7.0 | 10.0 | 0.00 | 0.00 | 0.00 | 96 | 1012.6 |
| 20260904114857 | 58 | 112 | 7.0 | 11.0 | 0.00 | 0.00 | 0.00 | 96 | 1012.6 |
| 20260904114357 | 58 | 105 | 7.0 | 11.0 | 0.00 | 0.00 | 0.00 | 96 | 1012.6 |
| 20260904113857 | 58 | 98 | 5.0 | 9.0 | 0.00 | 0.00 | 0.00 | 96 | 1012.6 |
| 20260904113357 | 58 | 109 | 5.0 | 10.0 | 0.00 | 0.00 | 0.00 | 96 | 1012.6 |
| 20260904112858 | 58 | 105 | 7.0 | 10.0 | 0.00 | 0.00 | 0.00 | 96 | 1012.6 |
| 20260904112356 | 58 | 110 | 6.0 | 9.0 | 0.00 | 0.00 | 0.00 | 96 | 1012.5 |
| 20260904111855 | 58 | 102 | 7.0 | 10.0 | 0.00 | 0.00 | 0.00 | 96 | 1012.6 |
| 20260904111355 | 58 | 98 | 8.0 | 10.0 | 0.00 | 0.00 | 0.00 | 95 | 1012.6 |
| 20260904110855 | 58 | 110 | 8.0 | 11.0 | 0.00 | 0.00 | 0.00 | 95 | 1012.7 |
| 20260904110356 | 58 | 103 | 8.0 | 11.0 | 0.00 | 0.00 | 0.00 | 95 | 1012.7 |
| 20260904105859 | 58 | 105 | 9.0 | 12.0 | 0.00 | 0.00 | 0.00 | 95 | 1012.6 |
| 20260904105855 | 58 | 118 | 9.0 | 12.0 | 0.00 | 0.00 | 0.00 | 95 | 1012.7 |
| 20260904104855 | 58 | 111 | 8.0 | 12.0 | 0.00 | 0.00 | 0.00 | 95 | 1012.7 |
| 20260904104353 | 58 | 97 | 9.0 | 12.0 | 0.00 | 0.00 | 0.00 | 95 | 1012.6 |
| 20260904103851 | 58 | 109 | 9.0 | 12.0 | 0.00 | 0.00 | 0.00 | 95 | 1012.6 |
| 20260904103351 | 59 | 107 | 8.0 | 12.0 | 0.00 | 0.00 | 0.00 | 94 | 1012.6 |
| 20260904102850 | 59 | 94 | 8.0 | 13.0 | 0.00 | 0.00 | 0.00 | 94 | 1012.6 |
| 20260904102351 | 59 | 105 | 9.0 | 13.0 | 0.00 | 0.00 | 0.00 | 94 | 1012.6 |
| 20260904101851 | 59 | 101 | 10.0 | 13.0 | 0.00 | 0.00 | 0.00 | 94 | 1012.5 |
| 20260904101351 | 59 | 98 | 10.0 | 13.0 | 0.00 | 0.00 | 0.00 | 93 | 1012.5 |
| 20260904100856 | 59 | 84 | 9.0 | 13.0 | 0.00 | 0.00 | 0.00 | 93 | 1012.5 |
| 20260904100851 | 59 | 86 | 9.0 | 13.0 | 0.00 | 0.00 | 0.00 | 93 | 1012.5 |
| 20260904095851 | 59 | 99 | 10.0 | 13.0 | 0.00 | 0.00 | 0.00 | 92 | 1012.6 |
| 20260904095351 | 59 | 90 | 9.0 | 12.0 | 0.00 | 0.00 | 0.00 | 91 | 1012.5 |
| 20260904094851 | 60 | 90 | 9.0 | 11.0 | 0.00 | 0.00 | 0.00 | 91 | 1012.6 |
| 20260904094351 | 60 | 90 | 10.0 | 11.0 | 0.00 | 0.00 | 0.00 | 90 | 1012.6 |
| 20260904093848 | 60 | 83 | 9.0 | 11.0 | 0.00 | 0.00 | 0.00 | 90 | 1012.6 |
| 20260904093350 | 60 | 86 | 8.0 | 10.0 | 0.00 | 0.00 | 0.00 | 89 | 1012.6 |
| 20260904092849 | 60 | 74 | 7.0 | 9.0 | 0.00 | 0.00 | 0.00 | 89 | 1012.5 |
| 20260904092354 | 60 | 87 | 6.0 | 9.0 | 0.00 | 0.00 | 0.00 | 88 | 1012.5 |
| 20260904092350 | 60 | 88 | 7.0 | 9.0 | 0.00 | 0.00 | 0.00 | 88 | 1012.5 |
| 20260904091349 | 60 | 84 | 5.0 | 8.0 | 0.00 | 0.00 | 0.00 | 88 | 1012.5 |
| 20260904090848 | 60 | 86 | 6.0 | 9.0 | 0.00 | 0.00 | 0.00 | 87 | 1012.6 |
| 20260904090348 | 60 | 84 | 7.0 | 9.0 | 0.00 | 0.00 | 0.00 | 87 | 1012.5 |
| 20260904085852 | 61 | 79 | 6.0 | 9.0 | 0.00 | 0.00 | 0.00 | 87 | 1012.5 |
| 20260904085848 | 61 | 68 | 7.0 | 9.0 | 0.00 | 0.00 | 0.00 | 86 | 1012.7 |
| 20260904085459 | 61 | 86 | 6.0 | 8.0 | 0.00 | 0.00 | 0.00 | 85 | 1012.7 |
| 20260904085452 | 61 | 78 | 6.0 | 9.0 | 0.00 | 0.00 | 0.00 | 86 | 1012.6 |
| 20260904083847 | 62 | 91 | 6.0 | 10.0 | 0.00 | 0.00 | 0.00 | 84 | 1012.7 |
| 20260904083347 | 62 | 98 | 7.0 | 10.0 | 0.00 | 0.00 | 0.00 | 82 | 1012.7 |
| 20260904082846 | 62 | 91 | 7.0 | 10.0 | 0.00 | 0.00 | 0.00 | 78 | 1012.7 |
| 20260904082346 | 61 | 88 | 8.0 | 10.0 | 0.00 | 0.00 | 0.00 | 77 | 1012.8 |
| 20260904081847 | 61 | 86 | 9.0 | 11.0 | 0.00 | 0.00 | 0.00 | 75 | 1012.7 |
| 20260904081346 | 61 | 86 | 9.0 | 11.0 | 0.00 | 0.00 | 0.00 | 78 | 1012.8 |
| 20260904080847 | 61 | 90 | 9.0 | 11.0 | 0.00 | 0.00 | 0.00 | 80 | 1012.9 |
| 20260904080345 | 61 | 90 | 9.0 | 11.0 | 0.00 | 0.00 | 0.00 | 80 | 1012.9 |
| 20260904075849 | 62 | 92 | 9.0 | 11.0 | 0.00 | 0.00 | 0.00 | 75 | 1013.0 |
| 20260904075845 | 62 | 98 | 9.0 | 11.0 | 0.00 | 0.00 | 0.00 | 78 | 1012.9 |
| 20260904074848 | 62 | 100 | 8.0 | 10.0 | 0.00 | 0.00 | 0.00 | 70 | 1013.1 |
| 20260904074844 | 62 | 101 | 8.0 | 10.0 | 0.00 | 0.00 | 0.00 | 70 | 1013.1 |
| 20260904073844 | 62 | 97 | 8.0 | 10.0 | 0.00 | 0.00 | 0.00 | 66 | 1013.0 |
| 20260904073344 | 62 | 98 | 8.0 | 10.0 | 0.00 | 0.00 | 0.00 | 66 | 1013.0 |
| 20260904072844 | 62 | 96 | 8.0 | 10.0 | 0.00 | 0.00 | 0.00 | 65 | 1013.0 |
| 20260904072344 | 63 | 98 | 8.0 | 10.0 | 0.00 | 0.00 | 0.00 | 66 | 1013.0 |
| 20260904071849 | 63 | 97 | 8.0 | 10.0 | 0.00 | 0.00 | 0.00 | 65 | 1012.9 |
| 20260904071844 | 63 | 96 | 8.0 | 10.0 | 0.00 | 0.00 | 0.00 | 65 | 1012.9 |
| 20260904070845 | 63 | 96 | 8.0 | 10.0 | 0.00 | 0.00 | 0.00 | 66 | 1012.9 |
| 20260904070348 | 64 | 96 | 8.0 | 10.0 | 0.00 | 0.00 | 0.00 | 54 | 1012.8 |
| 20260904070344 | 64 | 94 | 8.0 | 10.0 | 0.00 | 0.00 | 0.00 | 61 | 1012.8 |
| 20260904065349 | 64 | 103 | 7.0 | 10.0 | 0.00 | 0.00 | 0.00 | 58 | 1012.9 |
| 20260904065345 | 64 | 102 | 7.0 | 9.0 | 0.00 | 0.00 | 0.00 | 56 | 1012.9 |
| 20260904064955 | 64 | 96 | 7.0 | 9.0 | 0.00 | 0.00 | 0.00 | 59 | 1012.9 |
| 20260904064948 | 64 | 101 | 8.0 | 10.0 | 0.00 | 0.00 | 0.00 | 56 | 1012.9 |
| 20260904063342 | 64 | 89 | 7.0 | 9.0 | 0.00 | 0.00 | 0.00 | 61 | 1012.8 |
| 20260904062842 | 64 | 90 | 7.0 | 9.0 | 0.00 | 0.00 | 0.00 | 57 | 1012.8 |
| 20260904062346 | 64 | 89 | 7.0 | 9.0 | 0.00 | 0.00 | 0.00 | 57 | 1012.8 |
| 20260904062342 | 64 | 92 | 7.0 | 9.0 | 0.00 | 0.00 | 0.00 | 58 | 1012.9 |
| 20260904061342 | 64 | 92 | 7.0 | 9.0 | 0.00 | 0.00 | 0.00 | 57 | 1012.8 |
| 20260904060840 | 64 | 77 | 6.0 | 9.0 | 0.00 | 0.00 | 0.00 | 60 | 1012.7 |
| 20260904060340 | 64 | 78 | 5.0 | 8.0 | 0.00 | 0.00 | 0.00 | 63 | 1012.8 |
| 20260904055846 | 64 | 59 | 5.0 | 6.0 | 0.00 | 0.00 | 0.00 | 77 | 1012.7 |
| 20260904055840 | 64 | 61 | 5.0 | 6.0 | 0.00 | 0.00 | 0.00 | 75 | 1012.7 |
| 20260904054840 | 64 | 42 | 6.0 | 8.0 | 0.00 | 0.00 | 0.00 | 77 | 1012.8 |
| 20260904054338 | 64 | 40 | 6.0 | 8.0 | 0.00 | 0.00 | 0.00 | 76 | 1012.8 |
| 20260904053842 | 64 | 32 | 6.0 | 8.0 | 0.00 | 0.00 | 0.00 | 78 | 1012.9 |
| 20260904053837 | 64 | 32 | 6.0 | 8.0 | 0.00 | 0.00 | 0.00 | 79 | 1012.8 |
| 20260904052836 | 64 | 32 | 6.0 | 8.0 | 0.00 | 0.00 | 0.00 | 79 | 1012.9 |
| 20260904052339 | 64 | 32 | 6.0 | 8.0 | 0.00 | 0.00 | 0.00 | 80 | 1012.8 |
| 20260904052335 | 64 | 32 | 5.0 | 8.0 | 0.00 | 0.00 | 0.00 | 81 | 1012.8 |
| 20260904051334 | 64 | 32 | 5.0 | 8.0 | 0.00 | 0.00 | 0.00 | 81 | 1012.9 |
| 20260904050833 | 64 | 24 | 5.0 | 6.0 | 0.00 | 0.00 | 0.00 | 81 | 1013.0 |
| 20260904050335 | 64 | 24 | 4.0 | 6.0 | 0.00 | 0.00 | 0.00 | 81 | 1013.0 |
| 20260904045834 | 65 | 22 | 4.0 | 5.0 | 0.00 | 0.00 | 0.00 | 81 | 1013.0 |
| 20260904045338 | 65 | 5 | 4.0 | 5.0 | 0.00 | 0.00 | 0.00 | 81 | 1013.0 |
| 20260904045334 | 65 | 18 | 4.0 | 5.0 | 0.00 | 0.00 | 0.00 | 81 | 1013.0 |
| 20260904044333 | 65 | 5 | 4.0 | 5.0 | 0.00 | 0.00 | 0.00 | 81 | 1012.9 |
| 20260904043834 | 65 | 5 | 4.0 | 5.0 | 0.00 | 0.00 | 0.00 | 82 | 1012.8 |
| 20260904043443 | 65 | 0 | 5.0 | 6.0 | 0.00 | 0.00 | 0.00 | 82 | 1012.9 |
| 20260904043334 | 65 | 5 | 4.0 | 5.0 | 0.00 | 0.00 | 0.00 | 82 | 1012.8 |
| 20260904042836 | 65 | 355 | 4.0 | 5.0 | 0.00 | 0.00 | 0.00 | 82 | 1012.9 |
| 20260904042832 | 65 | 0 | 4.0 | 5.0 | 0.00 | 0.00 | 0.00 | 82 | 1012.9 |
| 20260904041939 | 65 | 282 | 4.0 | 6.0 | 0.00 | 0.00 | 0.00 | 82 | 1012.8 |
| 20260904041332 | 65 | 5 | 5.0 | 6.0 | 0.00 | 0.00 | 0.00 | 82 | 1012.8 |
| 20260904040332 | 65 | 261 | 4.0 | 6.0 | 0.00 | 0.00 | 0.00 | 82 | 1012.8 |
| 20260904035837 | 65 | 228 | 1.0 | 4.0 | 0.00 | 0.00 | 0.00 | 81 | 1012.7 |
| 20260904035832 | 65 | 259 | 3.0 | 4.0 | 0.00 | 0.00 | 0.00 | 82 | 1012.7 |
| 20260904034832 | 65 | 205 | 0.0 | 1.0 | 0.00 | 0.00 | 0.00 | 81 | 1012.7 |
| 20260904034332 | 65 | 119 | 0.0 | 1.0 | 0.00 | 0.00 | 0.00 | 81 | 1012.7 |
| 20260904033830 | 65 | 119 | 0.0 | 1.0 | 0.00 | 0.00 | 0.00 | 81 | 1012.6 |
| 20260904033330 | 65 | 119 | 0.0 | 0.0 | 0.00 | 0.00 | 0.00 | 80 | 1012.5 |
| 20260904032829 | 65 | 119 | 0.0 | 4.0 | 0.00 | 0.00 | 0.00 | 80 | 1012.5 |
| 20260904032330 | 65 | 119 | 0.0 | 4.0 | 0.00 | 0.00 | 0.00 | 80 | 1012.5 |
| 20260904031830 | 65 | 119 | 1.0 | 4.0 | 0.00 | 0.00 | 0.00 | 80 | 1012.4 |
| 20260904031330 | 65 | 119 | 1.0 | 4.0 | 0.00 | 0.00 | 0.00 | 80 | 1012.4 |
| 20260904030830 | 65 | 117 | 0.0 | 3.0 | 0.00 | 0.00 | 0.00 | 79 | 1012.4 |
| 20260904030330 | 65 | 174 | 1.0 | 3.0 | 0.00 | 0.00 | 0.00 | 80 | 1012.4 |
| 20260904025829 | 65 | 174 | 1.0 | 3.0 | 0.00 | 0.00 | 0.00 | 80 | 1012.4 |
| 20260904025334 | 66 | 180 | 0.0 | 2.0 | 0.00 | 0.00 | 0.00 | 77 | 1012.3 |
| 20260904025329 | 66 | 178 | 0.0 | 3.0 | 0.00 | 0.00 | 0.00 | 79 | 1012.4 |
| 20260904024828 | 66 | 178 | 0.0 | 1.0 | 0.00 | 0.00 | 0.00 | 78 | 1012.3 |
| 20260904023826 | 66 | 182 | 1.0 | 3.0 | 0.00 | 0.00 | 0.00 | 77 | 1012.3 |
| 20260904023325 | 67 | 184 | 1.0 | 3.0 | 0.00 | 0.00 | 0.00 | 76 | 1012.4 |
| 20260904022826 | 67 | 232 | 0.0 | 3.0 | 0.00 | 0.00 | 0.00 | 75 | 1012.3 |
| 20260904022323 | 67 | 317 | 1.0 | 3.0 | 0.00 | 0.00 | 0.00 | 75 | 1012.3 |
| 20260904021824 | 67 | 319 | 1.0 | 3.0 | 0.00 | 0.00 | 0.00 | 73 | 1012.3 |
| 20260904021327 | 68 | 313 | 2.0 | 6.0 | 0.00 | 0.00 | 0.00 | 73 | 1012.3 |
| 20260904021323 | 68 | 311 | 3.0 | 6.0 | 0.00 | 0.00 | 0.00 | 72 | 1012.4 |
| 20260904020322 | 68 | 265 | 3.0 | 6.0 | 0.00 | 0.00 | 0.00 | 72 | 1012.4 |
| 20260904015819 | 69 | 248 | 3.0 | 6.0 | 0.00 | 0.00 | 0.00 | 73 | 1012.4 |
| 20260904015320 | 69 | 247 | 3.0 | 6.0 | 0.00 | 0.00 | 0.00 | 72 | 1012.4 |
| 20260904014825 | 70 | 257 | 3.0 | 6.0 | 0.00 | 0.00 | 0.00 | 74 | 1012.3 |
| 20260904014820 | 70 | 244 | 2.0 | 6.0 | 0.00 | 0.00 | 0.00 | 74 | 1012.3 |
| 20260904013819 | 70 | 269 | 2.0 | 4.0 | 0.00 | 0.00 | 0.00 | 74 | 1012.3 |
| 20260904013319 | 71 | 277 | 1.0 | 4.0 | 0.00 | 0.00 | 0.00 | 69 | 1012.4 |
| 20260904012820 | 71 | 275 | 1.0 | 4.0 | 0.00 | 0.00 | 0.00 | 72 | 1012.4 |
| 20260904012320 | 71 | 275 | 1.0 | 4.0 | 0.00 | 0.00 | 0.00 | 72 | 1012.4 |
| 20260904011819 | 71 | 228 | 1.0 | 4.0 | 0.00 | 0.00 | 0.00 | 69 | 1012.4 |
| 20260904011319 | 71 | 228 | 1.0 | 4.0 | 0.00 | 0.00 | 0.00 | 70 | 1012.4 |
| 20260904010819 | 71 | 207 | 1.0 | 3.0 | 0.00 | 0.00 | 0.00 | 64 | 1012.5 |
| 20260904010319 | 71 | 200 | 0.0 | 3.0 | 0.00 | 0.00 | 0.00 | 70 | 1012.5 |
| 20260904005820 | 70 | 186 | 0.0 | 4.0 | 0.00 | 0.00 | 0.00 | 72 | 1012.5 |
| 20260904005320 | 70 | 196 | 0.0 | 4.0 | 0.00 | 0.00 | 0.00 | 68 | 1012.5 |
| 20260904004819 | 69 | 199 | 0.0 | 4.0 | 0.00 | 0.00 | 0.00 | 68 | 1012.5 |
| 20260904004319 | 69 | 196 | 1.0 | 4.0 | 0.00 | 0.00 | 0.00 | 64 | 1012.5 |
| 20260904003825 | 68 | 199 | 3.0 | 7.0 | 0.00 | 0.00 | 0.00 | 78 | 1012.6 |
| 20260904003819 | 68 | 233 | 2.0 | 5.0 | 0.00 | 0.00 | 0.00 | 73 | 1012.6 |
| 20260904003423 | 68 | 211 | 3.0 | 6.0 | 0.00 | 0.00 | 0.00 | 75 | 1012.7 |
| 20260904002924 | 68 | 188 | 3.0 | 7.0 | 0.00 | 0.00 | 0.00 | 79 | 1012.6 |
| 20260904002425 | 67 | 211 | 3.0 | 9.0 | 0.00 | 0.00 | 0.00 | 77 | 1012.6 |
| 20260904001317 | 67 | 220 | 3.0 | 9.0 | 0.00 | 0.00 | 0.00 | 82 | 1012.7 |
| 20260904000818 | 67 | 192 | 4.0 | 9.0 | 0.00 | 0.00 | 0.00 | 82 | 1012.8 |
| 20260904000318 | 67 | 204 | 5.0 | 9.0 | 0.00 | 0.00 | 0.00 | 82 | 1012.8 |
| 20260903235817 | 67 | 209 | 5.0 | 9.0 | 0.00 | 0.00 | 0.00 | 82 | 1012.8 |
| 20260903235315 | 68 | 227 | 6.0 | 9.0 | 0.00 | 0.00 | 0.00 | 81 | 1012.8 |
| 20260903234815 | 68 | 209 | 5.0 | 9.0 | 0.00 | 0.00 | 0.00 | 80 | 1012.8 |
| 20260903234316 | 69 | 229 | 4.0 | 8.0 | 0.00 | 0.00 | 0.00 | 80 | 1012.9 |
| 20260903233815 | 68 | 174 | 5.0 | 8.0 | 0.00 | 0.00 | 0.00 | 78 | 1012.9 |
| 20260903233314 | 69 | 190 | 5.0 | 8.0 | 0.00 | 0.00 | 0.00 | 79 | 1013.0 |
| 20260903232815 | 69 | 167 | 4.0 | 10.0 | 0.00 | 0.00 | 0.00 | 81 | 1013.0 |
| 20260903232811 | 69 | 220 | 4.0 | 10.0 | 0.00 | 0.00 | 0.00 | 78 | 1013.0 |
| 20260903231811 | 68 | 190 | 4.0 | 10.0 | 0.00 | 0.00 | 0.00 | 81 | 1013.1 |
| 20260903231309 | 69 | 217 | 4.0 | 10.0 | 0.00 | 0.00 | 0.00 | 80 | 1013.0 |
| 20260903230809 | 68 | 189 | 5.0 | 9.0 | 0.00 | 0.00 | 0.00 | 81 | 1013.0 |
| 20260903230311 | 68 | 181 | 6.0 | 10.0 | 0.00 | 0.00 | 0.00 | 82 | 1013.2 |
| 20260903230307 | 68 | 171 | 6.0 | 9.0 | 0.00 | 0.00 | 0.00 | 80 | 1013.1 |
| 20260903225307 | 67 | 204 | 5.0 | 10.0 | 0.00 | 0.00 | 0.00 | 81 | 1013.2 |
| 20260903224807 | 68 | 188 | 5.0 | 10.0 | 0.00 | 0.00 | 0.00 | 81 | 1013.2 |
| 20260903224308 | 68 | 192 | 5.0 | 9.0 | 0.00 | 0.00 | 0.00 | 80 | 1013.1 |
| 20260903223805 | 68 | 178 | 6.0 | 10.0 | 0.00 | 0.00 | 0.00 | 82 | 1013.2 |
| 20260903223305 | 67 | 183 | 7.0 | 11.0 | 0.00 | 0.00 | 0.00 | 83 | 1013.4 |
| 20260903222806 | 67 | 196 | 7.0 | 14.0 | 0.00 | 0.00 | 0.00 | 83 | 1013.5 |
| 20260903222306 | 67 | 194 | 8.0 | 14.0 | 0.00 | 0.00 | 0.00 | 83 | 1013.5 |
| 20260903221809 | 66 | 180 | 8.0 | 12.0 | 0.00 | 0.00 | 0.00 | 84 | 1013.6 |
| 20260903221805 | 66 | 164 | 8.0 | 12.0 | 0.00 | 0.00 | 0.00 | 83 | 1013.6 |
| 20260903220805 | 66 | 155 | 8.0 | 14.0 | 0.00 | 0.00 | 0.00 | 83 | 1013.6 |
| 20260903220305 | 66 | 181 | 8.0 | 14.0 | 0.00 | 0.00 | 0.00 | 82 | 1013.7 |